TAM3332 SBGR-SBVT

Flight info

Callsign TAM3332
Flight time 1h 3m
Altitude 35000
Route UREMI UZ42 IMDAB DCT SEGLI DCT TODET
Aircraft A321/M-SDE3FGHIRWY/LB1

Departure

Time 2026-04-25 18:51
Airport São Paulo/Guarulhos–Governor André Franco Montoro International Airport (SBGR)

Arrival

Time 2026-04-25 19:54
Airport Eurico de Aguiar Salles International Airport (SBVT)
Time Latitude Longitude Altitude Speed Heading
2026-04-25 17:58 -23.42818 -46.48350 2469 ft 0 kts 85°
2026-04-25 18:04 -23.42818 -46.48351 2468 ft 0 kts 85°
2026-04-25 18:19 -23.42818 -46.48352 2468 ft 0 kts 85°
2026-04-25 18:23 -23.42818 -46.48353 2472 ft 2 kts 85°
2026-04-25 18:23 -23.42820 -46.48367 2470 ft 2 kts 85°
2026-04-25 18:24 -23.42820 -46.48382 2469 ft 2 kts 91°
2026-04-25 18:24 -23.42820 -46.48392 2468 ft 1 kts 116°
2026-04-25 18:24 -23.42818 -46.48398 2468 ft 1 kts 153°
2026-04-25 18:24 -23.42814 -46.48401 2468 ft 1 kts 175°
2026-04-25 18:25 -23.42808 -46.48401 2471 ft 1 kts 181°
2026-04-25 18:25 -23.42803 -46.48401 2470 ft 1 kts 183°
2026-04-25 18:25 -23.42798 -46.48401 2470 ft 0 kts 184°
2026-04-25 18:27 -23.42799 -46.48403 2470 ft 1 kts 200°
2026-04-25 18:27 -23.42817 -46.48411 2468 ft 5 kts 204°
2026-04-25 18:28 -23.42860 -46.48426 2468 ft 8 kts 187°
2026-04-25 18:28 -23.42906 -46.48440 2468 ft 6 kts 204°
2026-04-25 18:28 -23.42940 -46.48451 2468 ft 5 kts 184°
2026-04-25 18:29 -23.43022 -46.48450 2473 ft 5 kts 179°
2026-04-25 18:29 -23.43057 -46.48444 2471 ft 5 kts 167°
2026-04-25 18:30 -23.43176 -46.48375 2469 ft 6 kts 94°
2026-04-25 18:30 -23.43170 -46.48334 2470 ft 6 kts 77°
2026-04-25 18:30 -23.43158 -46.48288 2470 ft 7 kts 73°
2026-04-25 18:30 -23.43144 -46.48235 2469 ft 8 kts 74°
2026-04-25 18:31 -23.43129 -46.48174 2470 ft 9 kts 74°
2026-04-25 18:31 -23.43144 -46.48114 2469 ft 10 kts 143°
2026-04-25 18:31 -23.43180 -46.48059 2472 ft 9 kts 90°
2026-04-25 18:31 -23.43162 -46.47990 2470 ft 10 kts 73°
2026-04-25 18:32 -23.43141 -46.47912 2471 ft 11 kts 73°
2026-04-25 18:32 -23.43119 -46.47829 2471 ft 12 kts 73°
2026-04-25 18:32 -23.43096 -46.47742 2472 ft 12 kts 74°
2026-04-25 18:32 -23.43072 -46.47650 2468 ft 13 kts 70°
2026-04-25 18:33 -23.43048 -46.47568 2471 ft 10 kts 72°
2026-04-25 18:33 -23.43031 -46.47510 2470 ft 6 kts 73°
2026-04-25 18:33 -23.43021 -46.47474 2470 ft 3 kts 73°
2026-04-25 18:33 -23.43015 -46.47449 2468 ft 4 kts 74°
2026-04-25 18:34 -23.43005 -46.47415 2472 ft 5 kts 73°
2026-04-25 18:34 -23.42993 -46.47370 2473 ft 7 kts 74°
2026-04-25 18:34 -23.42979 -46.47313 2469 ft 9 kts 75°
2026-04-25 18:34 -23.42958 -46.47236 2468 ft 12 kts 73°
2026-04-25 18:35 -23.42937 -46.47159 2474 ft 10 kts 73°
2026-04-25 18:35 -23.42918 -46.47089 2470 ft 9 kts 74°
2026-04-25 18:35 -23.42902 -46.47029 2469 ft 8 kts 73°
2026-04-25 18:35 -23.42884 -46.46964 2470 ft 9 kts 73°
2026-04-25 18:36 -23.42866 -46.46896 2473 ft 9 kts 74°
2026-04-25 18:36 -23.42851 -46.46841 2475 ft 6 kts 74°
2026-04-25 18:36 -23.42840 -46.46803 2471 ft 6 kts 72°
2026-04-25 18:36 -23.42825 -46.46752 2469 ft 9 kts 73°
2026-04-25 18:37 -23.42804 -46.46667 2472 ft 14 kts 74°
2026-04-25 18:37 -23.42772 -46.46549 2469 ft 17 kts 73°
2026-04-25 18:37 -23.42740 -46.46432 2470 ft 15 kts 73°
2026-04-25 18:37 -23.42713 -46.46325 2469 ft 13 kts 75°
2026-04-25 18:38 -23.42691 -46.46240 2474 ft 11 kts 71°
2026-04-25 18:38 -23.42664 -46.46152 2473 ft 13 kts 72°
2026-04-25 18:38 -23.42636 -46.46074 2472 ft 9 kts 46°
2026-04-25 18:38 -23.42591 -46.46066 2472 ft 5 kts
2026-04-25 18:39 -23.42570 -46.46061 2471 ft 1 kts 30°
2026-04-25 18:39 -23.42568 -46.46060 2470 ft 0 kts 31°
2026-04-25 18:40 -23.42560 -46.46052 2472 ft 4 kts 40°
2026-04-25 18:40 -23.42544 -46.46017 2468 ft 5 kts 70°
2026-04-25 18:40 -23.42534 -46.45977 2472 ft 6 kts 74°
2026-04-25 18:40 -23.42523 -46.45936 2471 ft 6 kts 74°
2026-04-25 18:41 -23.42512 -46.45892 2471 ft 6 kts 74°
2026-04-25 18:41 -23.42499 -46.45847 2471 ft 6 kts 71°
2026-04-25 18:41 -23.42485 -46.45802 2471 ft 5 kts 73°
2026-04-25 18:41 -23.42484 -46.45798 2470 ft 0 kts 73°
2026-04-25 18:44 -23.42479 -46.45781 2468 ft 7 kts 72°
2026-04-25 18:45 -23.42460 -46.45714 2471 ft 9 kts 73°
2026-04-25 18:45 -23.42443 -46.45650 2471 ft 9 kts 73°
2026-04-25 18:45 -23.42425 -46.45585 2469 ft 9 kts 73°
2026-04-25 18:45 -23.42408 -46.45520 2471 ft 10 kts 73°
2026-04-25 18:46 -23.42390 -46.45454 2471 ft 9 kts 73°
2026-04-25 18:46 -23.42371 -46.45384 2471 ft 12 kts 73°
2026-04-25 18:46 -23.42345 -46.45289 2473 ft 14 kts 73°
2026-04-25 18:46 -23.42318 -46.45188 2470 ft 14 kts 73°
2026-04-25 18:47 -23.42294 -46.45101 2469 ft 9 kts 73°
2026-04-25 18:47 -23.42276 -46.45032 2468 ft 10 kts 78°
2026-04-25 18:47 -23.42290 -46.44954 2472 ft 11 kts 117°
2026-04-25 18:47 -23.42356 -46.44914 2471 ft 10 kts 165°
2026-04-25 18:48 -23.42361 -46.44913 2471 ft 0 kts 165°
2026-04-25 18:49 -23.42405 -46.44899 2468 ft 13 kts 164°
2026-04-25 18:49 -23.42509 -46.44934 2472 ft 19 kts 249°
2026-04-25 18:50 -23.42556 -46.45123 2470 ft 48 kts 253°
2026-04-25 18:50 -23.42714 -46.45699 2474 ft 108 kts 253°
2026-04-25 18:50 -23.42974 -46.46658 2473 ft 153 kts 253°
2026-04-25 18:50 -23.43313 -46.47884 2602 ft 179 kts 256°
2026-04-25 18:51 -23.43702 -46.49199 3105 ft 186 kts 255°
2026-04-25 18:51 -23.43833 -46.49653 3266 ft 187 kts 255°
2026-04-25 18:51 -23.44466 -46.51920 4074 ft 187 kts 253°
2026-04-25 18:51 -23.44881 -46.53300 4251 ft 199 kts 256°
2026-04-25 18:52 -23.45275 -46.54805 4400 ft 214 kts 255°
2026-04-25 18:52 -23.45697 -46.56377 4793 ft 218 kts 250°
2026-04-25 18:52 -23.46670 -46.57657 5255 ft 229 kts 210°
2026-04-25 18:52 -23.48242 -46.58031 5779 ft 238 kts 181°
2026-04-25 18:53 -23.49906 -46.57831 6328 ft 242 kts 172°
2026-04-25 18:53 -23.51552 -46.57402 6935 ft 245 kts 157°
2026-04-25 18:53 -23.52964 -46.56337 7483 ft 252 kts 135°
2026-04-25 18:53 -23.54001 -46.54731 7795 ft 272 kts 114°
2026-04-25 18:54 -23.55085 -46.50518 8509 ft 301 kts 105°
2026-04-25 18:54 -23.55551 -46.48281 9179 ft 305 kts 96°
2026-04-25 18:54 -23.55420 -46.45970 9835 ft 309 kts 80°
2026-04-25 18:55 -23.55028 -46.43623 10277 ft 321 kts 80°
2026-04-25 18:55 -23.54604 -46.41154 10404 ft 343 kts 79°
2026-04-25 18:55 -23.54145 -46.38527 10632 ft 360 kts 79°
2026-04-25 18:55 -23.53673 -46.35820 11143 ft 365 kts 79°
2026-04-25 18:56 -23.53199 -46.33090 11743 ft 368 kts 80°
2026-04-25 18:56 -23.52721 -46.30323 12296 ft 373 kts 80°
2026-04-25 18:56 -23.52238 -46.27524 12873 ft 376 kts 80°
2026-04-25 18:56 -23.51753 -46.24714 13455 ft 379 kts 80°
2026-04-25 18:57 -23.51263 -46.21875 13961 ft 383 kts 80°
2026-04-25 18:57 -23.50775 -46.19055 14458 ft 386 kts 80°
2026-04-25 18:57 -23.50269 -46.16126 14933 ft 390 kts 80°
2026-04-25 18:57 -23.50107 -46.15185 15087 ft 391 kts 80°
2026-04-25 18:58 -23.49268 -46.10323 15855 ft 397 kts 79°
2026-04-25 18:58 -23.48235 -46.04357 16737 ft 405 kts 79°
2026-04-25 18:58 -23.47706 -46.01323 17164 ft 409 kts 79°
2026-04-25 18:59 -23.46633 -45.95170 17995 ft 417 kts 78°
2026-04-25 18:59 -23.45548 -45.88930 18788 ft 423 kts 78°
2026-04-25 19:00 -23.44433 -45.82587 19490 ft 429 kts 78°
2026-04-25 19:00 -23.43869 -45.79397 19850 ft 431 kts 78°
2026-04-25 19:01 -23.42729 -45.72942 20543 ft 436 kts 79°
2026-04-25 19:01 -23.42160 -45.69690 20889 ft 438 kts 79°
2026-04-25 19:01 -23.41591 -45.66420 21232 ft 441 kts 79°
2026-04-25 19:01 -23.41016 -45.63131 21552 ft 443 kts 79°
2026-04-25 19:02 -23.39849 -45.56546 22177 ft 448 kts 79°
2026-04-25 19:02 -23.39249 -45.53193 22504 ft 451 kts 79°
2026-04-25 19:02 -23.38640 -45.49836 22816 ft 453 kts 78°
2026-04-25 19:03 -23.37736 -45.45341 23222 ft 456 kts 77°
2026-04-25 19:03 -23.36506 -45.39735 23671 ft 460 kts 76°
2026-04-25 19:03 -23.35747 -45.36349 23913 ft 462 kts 76°
2026-04-25 19:04 -23.34488 -45.30632 24336 ft 465 kts 77°
2026-04-25 19:04 -23.33748 -45.27199 24593 ft 467 kts 77°
2026-04-25 19:05 -23.32279 -45.20292 25092 ft 470 kts 77°
2026-04-25 19:05 -23.30802 -45.13394 25596 ft 474 kts 77°
2026-04-25 19:05 -23.30051 -45.09897 25832 ft 476 kts 77°
2026-04-25 19:06 -23.29294 -45.06387 26093 ft 477 kts 77°
2026-04-25 19:06 -23.27762 -44.99314 26584 ft 482 kts 77°
2026-04-25 19:06 -23.26992 -44.95763 26876 ft 483 kts 77°
2026-04-25 19:07 -23.25447 -44.88631 27387 ft 487 kts 77°
2026-04-25 19:07 -23.24662 -44.85028 27626 ft 490 kts 77°
2026-04-25 19:08 -23.23080 -44.77791 28083 ft 494 kts 77°
2026-04-25 19:08 -23.22286 -44.74150 28287 ft 496 kts 77°
2026-04-25 19:09 -23.19836 -44.63155 28982 ft 501 kts 72°
2026-04-25 19:09 -23.19065 -44.60791 29097 ft 502 kts 66°
2026-04-25 19:09 -23.15810 -44.52634 29597 ft 506 kts 66°
2026-04-25 19:10 -23.14412 -44.49119 29837 ft 507 kts 66°
2026-04-25 19:10 -23.13015 -44.45596 30044 ft 508 kts 66°
2026-04-25 19:10 -23.11610 -44.42056 30244 ft 510 kts 66°
2026-04-25 19:10 -23.10201 -44.38517 30457 ft 511 kts 66°
2026-04-25 19:11 -23.08786 -44.34972 30692 ft 511 kts 66°
2026-04-25 19:11 -23.07389 -44.31474 30998 ft 510 kts 66°
2026-04-25 19:11 -23.05958 -44.27899 31303 ft 509 kts 65°
2026-04-25 19:11 -23.04567 -44.24426 31605 ft 508 kts 65°
2026-04-25 19:12 -23.03160 -44.20924 31905 ft 507 kts 65°
2026-04-25 19:12 -23.01751 -44.17414 32257 ft 505 kts 65°
2026-04-25 19:12 -23.00333 -44.13877 32619 ft 504 kts 65°
2026-04-25 19:12 -22.98937 -44.10393 32944 ft 502 kts 65°
2026-04-25 19:13 -22.97566 -44.06966 33252 ft 501 kts 65°
2026-04-25 19:13 -22.96176 -44.03499 33548 ft 501 kts 65°
2026-04-25 19:13 -22.94787 -44.00040 33851 ft 500 kts 65°
2026-04-25 19:13 -22.93397 -43.96588 34110 ft 499 kts 65°
2026-04-25 19:14 -22.92008 -43.93145 34360 ft 498 kts 65°
2026-04-25 19:14 -22.91072 -43.90827 34519 ft 497 kts 65°
2026-04-25 19:14 -22.89235 -43.86276 34820 ft 497 kts 65°
2026-04-25 19:15 -22.86478 -43.79459 34895 ft 490 kts 65°
2026-04-25 19:15 -22.83741 -43.72703 34893 ft 489 kts 65°
2026-04-25 19:16 -22.81007 -43.65957 34900 ft 489 kts 65°
2026-04-25 19:16 -22.78274 -43.59219 34917 ft 489 kts 65°
2026-04-25 19:17 -22.75540 -43.52481 34931 ft 488 kts 65°
2026-04-25 19:17 -22.72808 -43.45755 34931 ft 488 kts 65°
2026-04-25 19:18 -22.70062 -43.39026 34937 ft 488 kts 65°
2026-04-25 19:18 -22.67307 -43.32294 34934 ft 488 kts 65°
2026-04-25 19:19 -22.64566 -43.25574 34932 ft 488 kts 65°
2026-04-25 19:19 -22.61834 -43.18900 34944 ft 488 kts 65°
2026-04-25 19:20 -22.59076 -43.12182 34975 ft 488 kts 65°
2026-04-25 19:20 -22.56321 -43.05478 34974 ft 487 kts 65°
2026-04-25 19:21 -22.53576 -42.98785 34987 ft 487 kts 65°
2026-04-25 19:21 -22.49446 -42.88733 34986 ft 487 kts 65°
2026-04-25 19:22 -22.46683 -42.82040 34989 ft 487 kts 65°
2026-04-25 19:23 -22.42547 -42.72023 35006 ft 487 kts 65°
2026-04-25 19:23 -22.38407 -42.62002 35001 ft 487 kts 65°
2026-04-25 19:24 -22.35631 -42.55334 35005 ft 486 kts 65°
2026-04-25 19:25 -22.30062 -42.42015 35007 ft 485 kts 61°
2026-04-25 19:25 -22.26298 -42.36027 35003 ft 482 kts 51°
2026-04-25 19:26 -22.22262 -42.30296 34993 ft 482 kts 51°
2026-04-25 19:26 -22.18206 -42.24520 34993 ft 482 kts 51°
2026-04-25 19:27 -22.14809 -42.19685 34994 ft 482 kts 51°
2026-04-25 19:27 -22.10081 -42.12993 34993 ft 482 kts 51°
2026-04-25 19:28 -22.06017 -42.07244 34978 ft 483 kts 51°
2026-04-25 19:28 -22.01944 -42.01490 34982 ft 482 kts 51°
2026-04-25 19:29 -21.97881 -41.95743 34984 ft 482 kts 51°
2026-04-25 19:29 -21.93812 -41.89990 34975 ft 482 kts 51°
2026-04-25 19:30 -21.89740 -41.84255 34966 ft 482 kts 51°
2026-04-25 19:30 -21.85688 -41.78564 34965 ft 482 kts 51°
2026-04-25 19:31 -21.81609 -41.72828 34966 ft 482 kts 51°
2026-04-25 19:31 -21.77530 -41.67085 34828 ft 483 kts 51°
2026-04-25 19:32 -21.75486 -41.64214 34603 ft 483 kts 51°
2026-04-25 19:32 -21.73441 -41.61346 34134 ft 483 kts 51°
2026-04-25 19:32 -21.71392 -41.58474 33446 ft 484 kts 51°
2026-04-25 19:32 -21.70692 -41.57494 33240 ft 484 kts 51°
2026-04-25 19:33 -21.67296 -41.52731 32241 ft 482 kts 51°
2026-04-25 19:33 -21.65261 -41.49879 31638 ft 481 kts 51°
2026-04-25 19:33 -21.63225 -41.47028 31043 ft 480 kts 51°
2026-04-25 19:33 -21.61191 -41.44183 30461 ft 480 kts 51°
2026-04-25 19:34 -21.59159 -41.41343 29860 ft 479 kts 51°
2026-04-25 19:34 -21.57129 -41.38512 29235 ft 477 kts 51°
2026-04-25 19:34 -21.55110 -41.35699 28664 ft 473 kts 51°
2026-04-25 19:34 -21.53108 -41.32901 28088 ft 470 kts 52°
2026-04-25 19:35 -21.51124 -41.30126 27531 ft 467 kts 52°
2026-04-25 19:35 -21.49050 -41.27539 26991 ft 463 kts 43°
2026-04-25 19:35 -21.46624 -41.25291 26477 ft 458 kts 38°
2026-04-25 19:35 -21.44169 -41.23126 25989 ft 454 kts 38°
2026-04-25 19:36 -21.41732 -41.20983 25499 ft 450 kts 38°
2026-04-25 19:36 -21.39318 -41.18859 25017 ft 446 kts 38°
2026-04-25 19:36 -21.36928 -41.16755 24543 ft 442 kts 38°
2026-04-25 19:36 -21.34559 -41.14667 24072 ft 439 kts 39°
2026-04-25 19:37 -21.32209 -41.12592 23593 ft 435 kts 39°
2026-04-25 19:37 -21.29888 -41.10539 23059 ft 432 kts 39°
2026-04-25 19:37 -21.27586 -41.08506 22576 ft 426 kts 39°
2026-04-25 19:37 -21.25310 -41.06500 22111 ft 421 kts 38°
2026-04-25 19:38 -21.23051 -41.04514 21632 ft 416 kts 38°
2026-04-25 19:38 -21.20818 -41.02556 21164 ft 412 kts 38°
2026-04-25 19:38 -21.18614 -41.00628 20685 ft 409 kts 38°
2026-04-25 19:38 -21.16413 -40.98703 20210 ft 405 kts 38°
2026-04-25 19:39 -21.14241 -40.96800 19740 ft 402 kts 38°
2026-04-25 19:39 -21.12106 -40.94928 19266 ft 400 kts 38°
2026-04-25 19:39 -21.09961 -40.93047 18799 ft 398 kts 38°
2026-04-25 19:39 -21.07830 -40.91175 18332 ft 396 kts 38°
2026-04-25 19:40 -21.05711 -40.89311 17833 ft 393 kts 38°
2026-04-25 19:40 -21.03602 -40.87458 17354 ft 390 kts 38°
2026-04-25 19:40 -21.01511 -40.85625 16921 ft 386 kts 38°
2026-04-25 19:40 -20.99443 -40.83815 16474 ft 383 kts 38°
2026-04-25 19:41 -20.97391 -40.82017 16046 ft 380 kts 38°
2026-04-25 19:41 -20.95352 -40.80233 15609 ft 376 kts 38°
2026-04-25 19:41 -20.93332 -40.78468 15181 ft 373 kts 38°
2026-04-25 19:41 -20.92658 -40.77879 15038 ft 372 kts 38°
2026-04-25 19:42 -20.89334 -40.74975 14326 ft 368 kts 38°
2026-04-25 19:42 -20.87354 -40.73248 13896 ft 366 kts 38°
2026-04-25 19:42 -20.85393 -40.71535 13442 ft 363 kts 38°
2026-04-25 19:42 -20.83473 -40.69856 13007 ft 360 kts 38°
2026-04-25 19:43 -20.81533 -40.68144 12586 ft 357 kts 40°
2026-04-25 19:43 -20.79877 -40.66181 12175 ft 356 kts 53°
2026-04-25 19:43 -20.78438 -40.64026 11738 ft 353 kts 53°
2026-04-25 19:43 -20.77013 -40.61904 11305 ft 351 kts 52°
2026-04-25 19:44 -20.75589 -40.59791 10879 ft 349 kts 52°
2026-04-25 19:44 -20.74172 -40.57691 10455 ft 348 kts 52°
2026-04-25 19:44 -20.72784 -40.55641 10175 ft 341 kts 52°
2026-04-25 19:44 -20.71422 -40.53629 10052 ft 326 kts 52°
2026-04-25 19:45 -20.70128 -40.51720 9848 ft 310 kts 51°
2026-04-25 19:45 -20.68877 -40.49873 9394 ft 304 kts 51°
2026-04-25 19:45 -20.67647 -40.48057 9037 ft 301 kts 51°
2026-04-25 19:45 -20.66423 -40.46247 8659 ft 300 kts 52°
2026-04-25 19:46 -20.65203 -40.44445 8272 ft 298 kts 52°
2026-04-25 19:46 -20.63992 -40.42656 7953 ft 296 kts 52°
2026-04-25 19:46 -20.62789 -40.40879 7582 ft 295 kts 52°
2026-04-25 19:46 -20.61593 -40.39110 7214 ft 293 kts 52°
2026-04-25 19:47 -20.60405 -40.37357 6832 ft 290 kts 52°
2026-04-25 19:47 -20.59229 -40.35621 6473 ft 288 kts 52°
2026-04-25 19:47 -20.58055 -40.33893 6090 ft 286 kts 52°
2026-04-25 19:47 -20.56888 -40.32179 5725 ft 284 kts 52°
2026-04-25 19:48 -20.55727 -40.30472 5365 ft 284 kts 52°
2026-04-25 19:48 -20.54574 -40.28775 5001 ft 281 kts 52°
2026-04-25 19:48 -20.53430 -40.27089 4642 ft 280 kts 51°
2026-04-25 19:48 -20.52077 -40.25639 4282 ft 274 kts 32°
2026-04-25 19:49 -20.50983 -40.25004 4054 ft 269 kts 19°
2026-04-25 19:49 -20.49794 -40.24654 3818 ft 266 kts
2026-04-25 19:49 -20.46744 -40.24859 3250 ft 261 kts 351°
2026-04-25 19:49 -20.44957 -40.25128 2890 ft 258 kts 352°
2026-04-25 19:50 -20.42092 -40.25556 2427 ft 239 kts 353°
2026-04-25 19:50 -20.40494 -40.25795 2331 ft 225 kts 354°
2026-04-25 19:50 -20.38980 -40.26022 2154 ft 215 kts 355°
2026-04-25 19:51 -20.37529 -40.26240 2040 ft 204 kts 355°
2026-04-25 19:51 -20.36201 -40.26439 1945 ft 181 kts 354°
2026-04-25 19:51 -20.35004 -40.26617 1813 ft 168 kts 354°
2026-04-25 19:51 -20.33551 -40.26830 1553 ft 152 kts 354°
2026-04-25 19:52 -20.32849 -40.26933 1391 ft 150 kts 354°
2026-04-25 19:52 -20.31815 -40.27085 1171 ft 149 kts 355°
2026-04-25 19:52 -20.30792 -40.27238 967 ft 148 kts 354°
2026-04-25 19:52 -20.29781 -40.27396 782 ft 145 kts 354°
2026-04-25 19:53 -20.28790 -40.27539 516 ft 142 kts 355°
2026-04-25 19:53 -20.27819 -40.27677 326 ft 139 kts 355°
2026-04-25 19:53 -20.26858 -40.27813 112 ft 139 kts 355°
2026-04-25 19:53 -20.25944 -40.27939 21 ft 122 kts 355°
2026-04-25 19:54 -20.25396 -40.28018 24 ft 37 kts 352°
2026-04-25 19:54 -20.25266 -40.28039 20 ft 10 kts 350°
2026-04-25 19:54 -20.25228 -40.28089 19 ft 9 kts 264°
2026-04-25 19:54 -20.25254 -40.28120 19 ft 8 kts 217°
2026-04-25 19:55 -20.25318 -40.28163 18 ft 8 kts 212°
2026-04-25 19:55 -20.25362 -40.28192 18 ft 7 kts 206°
2026-04-25 19:55 -20.25405 -40.28193 18 ft 6 kts 176°
2026-04-25 19:55 -20.25456 -40.28190 18 ft 10 kts 174°
2026-04-25 19:56 -20.25539 -40.28179 18 ft 14 kts 173°
2026-04-25 19:56 -20.25655 -40.28162 18 ft 19 kts 171°
2026-04-25 19:56 -20.25806 -40.28139 18 ft 25 kts 172°
2026-04-25 19:56 -20.25983 -40.28114 18 ft 26 kts 172°
2026-04-25 19:57 -20.26169 -40.28087 18 ft 27 kts 172°
2026-04-25 19:57 -20.26257 -40.28073 18 ft 7 kts 172°
2026-04-25 19:57 -20.26307 -40.28081 18 ft 8 kts 212°
2026-04-25 19:57 -20.26351 -40.28116 18 ft 8 kts 204°
2026-04-25 19:58 -20.26397 -40.28115 18 ft 3 kts 174°
2026-04-25 19:58 -20.26410 -40.28120 18 ft 1 kts 226°
2026-04-25 19:58 -20.26417 -40.28139 19 ft 5 kts 245°
2026-04-25 19:58 -20.26421 -40.28170 18 ft 3 kts 264°
2026-04-25 19:59 -20.26422 -40.28180 18 ft 0 kts 264°